CZ-6A DEB, 54467

Orbit data source: Space-Track

CZ-6A DEB, 54467 is space debris in SSO originally from a launch on Fri, 11 Nov 2022 UTC launched from the Taiyaun Space Center, China (TSC). Debris objects in space refer to the collection of defunct objects orbiting the Earth. Examples of debris include non-operational satellites, rocket bodies, and fragments generated from explosions, collisions, or faulty payload assembly.

Loading next visibility...
Identifier
54467, 2022-151GT
Orbit
SSO
Country
Flag of CNCN / PRC
Related business
Manufacturer
SAST
Mission
Spacecraft
Bus & Motor
Unknown
Mass
Unknown
Launch date (UTC)
2022-11-11 (4 years ago)
Launch vehicle
Unknown
Launch site
Taiyaun Space Center, China (TSC)
Object type
Payload
Rocket body
Debris
Shape & HBR
Unknown shape, 0.1 m
Radar Cross Section
Medium (>0.1 m² and <1 m²)

Expand to show TLE details & history
Last TLE update: 8 hours ago

TLE from 8 hours ago
0 CZ-6A DEB
1 54467U 22151GT  26237.95088682  .00002472  00000-0  65460-3 0  9992
2 54467  98.6008 277.7640 0097474 147.5451 213.1785 14.46893546198757
Epoch: 2026-08-25T22:49Z
TLE epoch observation values (Epoch: 2026-08-25T22:49:16.621Z)
Latitude
-0.00009°
Longitude
-38.76612°
Altitude
797.018 km
Speed
7.424 km/s
True Right ascension
18h 31m 03s
True Declination
0° 00' 00"
Sunlit
Object was in full shadow at epoch
Visualization orbit readout
Latitude
Unknown
Longitude
Unknown
Altitude
Unknown
Speed
Unknown
Apparent Right ascension
Unknown
Apparent Declination
Unknown
Sunlit
N/A
Visualization observer readout
Local Sidereal Time
22:15:38
Azimuth
Unknown
Elevation
Unknown
Doppler factor
Unknown
Orbital elements
Apogee altitude
802.244 km
Perigee altitude
663.615 km
Semi-major axis
7,111.067 km
Eccentricity
0.00975
Inclination
98.6008°
RAAN
277.764°
Arg. of periapsis
147.5451°
True anomaly
212.57342°
Mean anomaly
213.1785°
Eccentric anomaly
212.87535°
Mean motion
3.61944 °/min
Orbital period
99.46 mins
BSTAR
0.0006546
Loading maneuver chart data...
Computing Atmospheric mass density...
Loading historical data...
Loading historical data...
Loading historical data...
Loading historical data...
Loading historical data...
Loading historical data...
Loading historical data...

Documentation

Showing up to 5 results
|